Weather History for Albany, GA

Change the Weather History Date:

Saturday, January 5, 2013

  Actual Average Record
Temperature  
Mean Temperature 45 °F 49 °F  
Max Temperature 56 °F 60 °F 81 °F (2004)
Min Temperature 33 °F 38 °F 19 °F (2002)
Degree Days  
Heating Degree Days 20 16  
Month to date heating degree days 67 80  
Since 1 July heating degree days 719 793  
Cooling Degree Days 0 0  
Month to date cooling degree days 0 0  
Year to date cooling degree days 0 0  
Moisture  
Dew Point 34 °F    
Average Humidity 63    
Maximum Humidity 93    
Minimum Humidity 32    
Precipitation  
Precipitation T in 0.14 in 1.61 in (2007)
Month to date precipitation 0.14 0.68  
Year to date precipitation 0.14 0.68  
Sea Level Pressure  
Sea Level Pressure 30.36 in    
Wind  
Wind Speed 2 mph (NE)    
Max Wind Speed 10 mph    
Max Gust Speed 30 mph    
Visibility 10 miles    
Events Rain    
T = Trace of Precipitation, MM = Missing Value Source: NWS Daily Summary

Daily Weather History Graph

Daily Weather History Graph

Search for Another Location

Airport:

Trip Planner

Search our weather history database for the weather conditions in past years. The results will help you decide how hot, cold, wet, or windy it might be!

Date:

Astronomy

Jan. 05, 2013 Rise Set
Actual Time 7:36 AM EST 5:47 PM EST
Civil Twilight 7:10 AM EST 6:14 PM EST
Nautical Twilight 6:40 AM EST 6:44 PM EST
Astronomical Twilight 6:10 AM EST 7:14 PM EST
Moon 12:55 AM EST (1/5) 12:26 PM EST (1/5)
Length of Visible Light 11h 04m
Length of Day
10h 10m
Last Quarter, 44% of the Moon is Illuminated
Jan 5
Last Quarter
Jan 11
New
Jan 18
First Quarter
Jan 26
Full
Feb 3
Last Quarter

Hourly Weather History & Observations

Time (EST) Temp. Windchill Dew Point Humidity Pressure Visibility Wind Dir Wind Speed Gust Speed Precip Events Conditions
12:53 AM 39.0 °F 36.8 °F 35.1 °F 86% 30.37 in 10.0 mi North 3.5 mph - N/A   Clear
1:53 AM 37.9 °F - 34.0 °F 86% 30.37 in 10.0 mi Calm Calm - N/A   Clear
2:53 AM 39.0 °F - 33.1 °F 79% 30.37 in 10.0 mi Calm Calm - N/A   Clear
3:53 AM 37.0 °F - 32.0 °F 82% 30.37 in 10.0 mi Calm Calm - N/A   Clear
5:53 AM 34.0 °F - 30.9 °F 89% 30.38 in 10.0 mi Calm Calm - N/A   Clear
6:53 AM 33.1 °F - 30.9 °F 92% 30.39 in 10.0 mi Calm Calm - N/A   Clear
7:53 AM 36.0 °F 31.1 °F 28.9 °F 76% 30.39 in 10.0 mi NNE 5.8 mph - N/A   Clear
7:54 AM 35.6 °F 31.7 °F 28.4 °F 75% 30.38 in 10.0 mi NE 4.6 mph - N/A   Scattered Clouds
8:53 AM 42.1 °F 39.2 °F 28.9 °F 60% 30.40 in 10.0 mi NNE 4.6 mph - N/A   Scattered Clouds
9:53 AM 46.9 °F - 27.0 °F 46% 30.42 in 10.0 mi NE 9.2 mph - N/A   Scattered Clouds
10:53 AM 48.9 °F - 27.0 °F 43% 30.41 in 10.0 mi ENE 5.8 mph - N/A   Scattered Clouds
11:53 AM 51.1 °F - 26.1 °F 38% 30.39 in 10.0 mi ENE 5.8 mph - N/A   Clear
12:53 PM 53.1 °F - 27.0 °F 37% 30.36 in 10.0 mi SE 4.6 mph - N/A   Clear
1:53 PM 54.0 °F - 27.0 °F 35% 30.33 in 10.0 mi North 4.6 mph - N/A   Clear
2:53 PM 55.0 °F - 27.0 °F 34% 30.32 in 10.0 mi NE 4.6 mph - N/A   Mostly Cloudy
3:53 PM 55.0 °F - 27.0 °F 34% 30.31 in 10.0 mi Calm Calm - N/A   Mostly Cloudy
4:53 PM 53.1 °F - 30.0 °F 41% 30.31 in 10.0 mi Calm Calm - N/A   Clear
5:53 PM 48.9 °F - 42.1 °F 77% 30.32 in 8.0 mi Calm Calm - 0.00 in Rain Light Rain
6:53 PM 48.0 °F - 44.1 °F 86% 30.33 in 9.0 mi Calm Calm - 0.00 in Rain Light Rain
7:53 PM 48.0 °F - 44.1 °F 86% 30.34 in 10.0 mi Calm Calm - 0.00 in   Clear
8:53 PM 46.9 °F - 44.1 °F 90% 30.38 in 10.0 mi SW 3.5 mph - N/A   Overcast
9:53 PM 46.9 °F - 45.0 °F 93% 30.36 in 9.0 mi NNW 5.8 mph - N/A   Mostly Cloudy
10:53 PM 46.9 °F - 44.1 °F 90% 30.35 in 8.0 mi Calm Calm - 0.00 in Rain Light Rain
11:53 PM 46.9 °F - 43.0 °F 86% 30.30 in 10.0 mi Calm Calm - 0.00 in   Mostly Cloudy